San Angelo, TX

9:18 PM CDT on May 22, 2018 (GMT -0500)
San Angelo Regional-Mathis

Weather History for KSJT - May, 2014

Change the Weather History Date:

Friday, May 23, 2014

  Actual Average Record
Temperature  
Mean Temperature 78 °F 76 °F  
Max Temperature 91 °F 89 °F 105 °F (2000)
Min Temperature 64 °F 64 °F 48 °F (2017)
Degree Days  
Heating Degree Days 0 0  
Month to date heating degree days 28 8  
Since 1 July heating degree days 2497 2314  
Cooling Degree Days 13 11  
Month to date cooling degree days 270 205  
Year to date cooling degree days 523 361  
Growing Degree Days 28 (Base 50)    
Moisture  
Dew Point 63 °F    
Average Humidity 64    
Maximum Humidity 93    
Minimum Humidity 34    
Precipitation  
Precipitation 0.80 in 0.11 in 1.83 in (1954)
Month to date precipitation 1.13 1.93  
Year to date precipitation 1.65 7.13  
Sea Level Pressure  
Sea Level Pressure 29.94 in    
Wind  
Wind Speed 12 mph (SE)    
Max Wind Speed 40 mph    
Max Gust Speed 44 mph    
Visibility 10 miles    
Events Rain , Thunderstorm    
T = Trace of Precipitation, MM = Missing Value Source: NWS Daily Summary

Daily Weather History Graph

Daily Weather History Graph

Search for Another Location

Airport or City:

Astronomy

May. 23, 2014 Rise Set
Actual Time 6:41 AM CDT 8:36 PM CDT
Civil Twilight 6:14 AM CDT 9:03 PM CDT
Nautical Twilight 5:41 AM CDT 9:36 PM CDT
Astronomical Twilight 5:06 AM CDT 10:11 PM CDT
Moon 3:16 AM CDT 3:49 PM CDT
Length of Visible Light 14h 49m
Length of Day
13h 54m
Waning Crescent, 27% of the Moon is Illuminated
May 23
Waning Crescent
May 28
New
Jun 5
First Quarter
Jun 12
Full
Jun 19
Last Quarter

Hourly Weather History & Observations

Time (CDT) Temp. Heat Index Dew Point Humidity Pressure Visibility Wind Dir Wind Speed Gust Speed Precip Events Conditions
12:51 AM 78.1 °F - 62.1 °F 58% 29.96 in 10.0 mi SSE 12.7 mph - N/A   Clear
1:51 AM 77.0 °F - 62.1 °F 60% 29.94 in 10.0 mi SSE 10.4 mph - N/A   Clear
4:51 AM 75.0 °F - 63.0 °F 66% 29.91 in 10.0 mi SSE 12.7 mph - N/A   Overcast
5:35 AM 73.9 °F - 64.0 °F 71% 29.99 in 10.0 mi SE 8.1 mph - N/A   Scattered Clouds
5:51 AM 73.9 °F - 64.0 °F 71% 29.91 in 10.0 mi SE 10.4 mph - N/A   Partly Cloudy
6:51 AM 73.0 °F - 63.0 °F 71% 29.93 in 10.0 mi SSE 5.8 mph - N/A   Scattered Clouds
7:51 AM 73.0 °F - 64.0 °F 73% 29.96 in 10.0 mi SSE 8.1 mph - N/A   Mostly Cloudy
8:51 AM 73.9 °F - 64.0 °F 71% 29.99 in 10.0 mi South 8.1 mph - N/A   Partly Cloudy
9:51 AM 73.9 °F - 64.0 °F 71% 29.99 in 10.0 mi SSE 6.9 mph - N/A   Overcast
10:51 AM 73.9 °F - 64.9 °F 73% 29.99 in 10.0 mi SSE 12.7 mph - 0.00 in Rain Light Rain
11:51 AM 77.0 °F - 64.0 °F 64% 29.98 in 10.0 mi SSE 11.5 mph - 0.00 in   Scattered Clouds
12:51 PM 80.1 °F 81.1 °F 61.0 °F 52% 29.96 in 10.0 mi SSE 10.4 mph - 0.00 in   Partly Cloudy
1:51 PM 84.0 °F 84.0 °F 60.1 °F 44% 29.92 in 10.0 mi SE 9.2 mph 17.3 mph N/A   Clear
2:51 PM 89.1 °F 88.0 °F 57.9 °F 35% 29.88 in 10.0 mi South 10.4 mph 19.6 mph N/A   Scattered Clouds
3:51 PM 89.1 °F 88.8 °F 60.1 °F 38% 29.86 in 10.0 mi SSW 15.0 mph 25.3 mph N/A Thunderstorm Scattered Clouds
4:41 PM 82.0 °F 83.0 °F 62.1 °F 51% 29.93 in 10.0 mi ESE 25.3 mph 34.5 mph N/A Thunderstorm Mostly Cloudy
4:51 PM 78.1 °F - 63.0 °F 60% 29.86 in 10.0 mi East 21.9 mph 33.4 mph N/A Thunderstorm Mostly Cloudy
4:58 PM 77.0 °F - 64.9 °F 66% 29.93 in 10.0 mi East 19.6 mph 31.1 mph N/A Thunderstorm Thunderstorm
5:43 PM 73.0 °F - 64.9 °F 76% 29.93 in 10.0 mi East 17.3 mph 24.2 mph 0.00 in Thunderstorm Overcast
5:51 PM 73.0 °F - 66.0 °F 79% 29.87 in 10.0 mi East 17.3 mph 27.6 mph 0.00 in Rain , Thunderstorm Light Rain
6:23 PM 75.9 °F - 64.0 °F 67% 29.91 in 10.0 mi ESE 24.2 mph - 0.00 in   Scattered Clouds
6:49 PM 75.2 °F - 66.2 °F 73% 29.94 in 10.0 mi ESE 17.3 mph 26.5 mph 0.00 in Thunderstorm Scattered Clouds
6:51 PM 75.0 °F - 66.0 °F 73% 29.88 in 10.0 mi ESE 15.0 mph - 0.00 in Thunderstorm Mostly Cloudy
7:23 PM 73.9 °F - 64.9 °F 73% 29.97 in 10.0 mi NNE 18.4 mph 21.9 mph N/A   Overcast
7:33 PM 72.0 °F - 64.0 °F 76% 29.96 in 10.0 mi NNE 17.3 mph - N/A Thunderstorm Overcast
7:47 PM 69.8 °F - 64.4 °F 83% 29.96 in 10.0 mi ENE 12.7 mph 19.6 mph 0.02 in Rain , Thunderstorm Thunderstorms and Rain
7:51 PM 70.0 °F - 64.9 °F 84% 29.91 in 10.0 mi ENE 15.0 mph 23.0 mph 0.03 in Rain , Thunderstorm Thunderstorms and Rain
9:06 PM 64.9 °F - 64.0 °F 97% 29.98 in 4.0 mi East 21.9 mph - 0.36 in Rain , Thunderstorm Heavy Thunderstorms and Rain
9:40 PM 64.9 °F - 63.0 °F 93% 30.02 in 10.0 mi ENE 10.4 mph - 0.59 in Rain , Thunderstorm Light Thunderstorms and Rain
10:10 PM 64.9 °F - 63.0 °F 93% 30.01 in 10.0 mi ESE 13.8 mph - 0.00 in Rain , Thunderstorm Light Rain
10:46 PM 66.2 °F - 62.6 °F 88% 30.02 in 10.0 mi SE 6.9 mph - 0.00 in   Partly Cloudy
10:51 PM 66.0 °F - 63.0 °F 90% 29.98 in 10.0 mi South 5.8 mph - 0.00 in   Partly Cloudy
11:51 PM 68.0 °F - 64.9 °F 90% 29.96 in 10.0 mi ESE 12.7 mph - N/A   Clear